Location: ??????
(41.3747°N, 22.5491°E)
Time: 04:03:28
(UTC+00:00)

Cosmos 1151 Rocket - Pass Details

Date: 01 December 2020
Orbit: 593 x 615 km, 82.5° (Epoch: 20 January)

Event Time Altitude Azimuth Distance (km) Brightness Sun altitude
Rises 15:27:40 0° 171° (S) 2,831 6.7 -5.3°
Reaches altitude 10° 15:29:56 10° 165° (SSE) 1,931 5.7 -5.7°
Maximum altitude 15:34:00 45° 93° (E) 813 3.3 -6.4°
Drops below altitude 10° 15:38:05 10° 20° (NNE) 1,937 5.2 -7.1°
Sets 15:40:21 0° 15° (NNE) 2,842 6.1 -7.5°
